| time (UTC) | temp C | wind direction | speed KPH | gust KPH | rain 1hr cm | rain 24hr cm | rain mn cm | humidity % | barometer mb |
| 20260505101653 | 12 | 202 | 0.0 | 0.0 | 0.00 | 0.00 | 0.00 | 75 | 1052.6 |
| 20260505100654 | 12 | 205 | 1.6 | 3.2 | 0.00 | 0.00 | 0.00 | 75 | 1052.4 |
| 20260505100555 | 12 | 183 | 1.6 | 3.2 | 0.00 | 0.00 | 0.00 | 75 | 1052.4 |
| 20260505095653 | 12 | 197 | 0.0 | 4.8 | 0.00 | 0.00 | 0.00 | 77 | 1052.3 |
| 20260505093753 | 10 | 112 | 0.0 | 0.0 | 0.00 | 0.00 | 0.00 | 82 | 1052.2 |
| 20260505092837 | 10 | 180 | 0.0 | 0.0 | 0.00 | 0.00 | 0.00 | 82 | 1052.4 |
| 20260505091854 | 10 | 180 | 0.0 | 0.0 | 0.00 | 0.00 | 0.00 | 82 | 1052.2 |
| 20260505090754 | 10 | 180 | 0.0 | 0.0 | 0.00 | 0.00 | 0.00 | 82 | 1052.2 |
| 20260505085753 | 10 | 180 | 0.0 | 0.0 | 0.00 | 0.00 | 0.00 | 81 | 1052.2 |
| 20260505085654 | 10 | 180 | 0.0 | 0.0 | 0.00 | 0.00 | 0.00 | 81 | 1052.2 |
| 20260505084654 | 10 | 180 | 0.0 | 0.0 | 0.00 | 0.00 | 0.00 | 80 | 1052.2 |
| 20260505084554 | 10 | 180 | 0.0 | 0.0 | 0.00 | 0.00 | 0.00 | 80 | 1052.2 |
| 20260505083652 | 10 | 180 | 0.0 | 0.0 | 0.00 | 0.00 | 0.00 | 81 | 1052.2 |
| 20260505082653 | 10 | 225 | 0.0 | 0.0 | 0.00 | 0.00 | 0.00 | 82 | 1052.2 |
| 20260505081654 | 10 | 202 | 0.0 | 0.0 | 0.00 | 0.00 | 0.00 | 82 | 1052.3 |
| 20260505081553 | 10 | 202 | 0.0 | 0.0 | 0.00 | 0.00 | 0.00 | 81 | 1052.3 |
| 20260505080553 | 10 | 198 | 0.0 | 1.6 | 0.00 | 0.00 | 0.00 | 82 | 1052.3 |
| 20260505074652 | 10 | 202 | 0.0 | 0.0 | 0.00 | 0.00 | 0.00 | 81 | 1052.2 |
| 20260505074554 | 10 | 202 | 0.0 | 0.0 | 0.00 | 0.00 | 0.00 | 80 | 1052.2 |
| 20260505073652 | 10 | 202 | 0.0 | 0.0 | 0.00 | 0.00 | 0.00 | 80 | 1052.2 |
| 20260505072654 | 11 | 202 | 0.0 | 0.0 | 0.00 | 0.00 | 0.00 | 80 | 1052.2 |
| 20260505071654 | 11 | 202 | 0.0 | 0.0 | 0.00 | 0.00 | 0.00 | 79 | 1052.1 |
| 20260505070652 | 11 | 202 | 0.0 | 0.0 | 0.00 | 0.00 | 0.00 | 79 | 1052.1 |
| 20260505064654 | 12 | 202 | 0.0 | 0.0 | 0.00 | 0.00 | 0.00 | 76 | 1052.0 |
| 20260505063653 | 12 | 202 | 0.0 | 0.0 | 0.00 | 0.00 | 0.00 | 76 | 1052.1 |
| 20260505062654 | 12 | 202 | 0.0 | 0.0 | 0.00 | 0.00 | 0.00 | 75 | 1052.0 |
| 20260505061753 | 12 | 202 | 0.0 | 0.0 | 0.00 | 0.00 | 0.00 | 75 | 1052.2 |
| 20260505060753 | 12 | 202 | 0.0 | 1.6 | 0.00 | 0.00 | 0.00 | 73 | 1052.3 |
| 20260505055754 | 12 | 202 | 0.0 | 0.0 | 0.00 | 0.00 | 0.00 | 72 | 1052.2 |
| 20260505054755 | 13 | 202 | 0.0 | 0.0 | 0.00 | 0.00 | 0.00 | 72 | 1052.4 |
| 20260505053753 | 13 | 202 | 0.0 | 0.0 | 0.00 | 0.00 | 0.00 | 70 | 1052.3 |
| 20260505053654 | 13 | 202 | 0.0 | 0.0 | 0.00 | 0.00 | 0.00 | 71 | 1052.3 |
| 20260505052654 | 13 | 202 | 0.0 | 0.0 | 0.00 | 0.00 | 0.00 | 69 | 1052.3 |
| 20260505051655 | 13 | 202 | 0.0 | 0.0 | 0.00 | 0.00 | 0.00 | 67 | 1052.3 |
| 20260505051553 | 13 | 202 | 0.0 | 0.0 | 0.00 | 0.00 | 0.00 | 67 | 1052.4 |
| 20260505050554 | 14 | 202 | 0.0 | 0.0 | 0.00 | 0.00 | 0.00 | 66 | 1052.2 |
| 20260505041752 | 14 | 189 | 1.6 | 6.4 | 0.00 | 0.00 | 0.00 | 65 | 1052.0 |
| 20260505040754 | 13 | 157 | 0.0 | 4.8 | 0.00 | 0.00 | 0.00 | 67 | 1052.0 |
| 20260505035836 | 13 | 181 | 0.0 | 1.6 | 0.00 | 0.00 | 0.00 | 67 | 1052.0 |
| 20260505034934 | 13 | 202 | 0.0 | 0.0 | 0.00 | 0.00 | 0.00 | 67 | 1052.0 |
| 20260505033934 | 14 | 112 | 0.0 | 0.0 | 0.00 | 0.00 | 0.00 | 65 | 1051.9 |
| 20260505033835 | 14 | 112 | 0.0 | 0.0 | 0.00 | 0.00 | 0.00 | 66 | 1051.8 |
| 20260505032837 | 14 | 112 | 0.0 | 0.0 | 0.00 | 0.00 | 0.00 | 64 | 1051.9 |
| 20260505031934 | 14 | 177 | 0.0 | 1.6 | 0.00 | 0.00 | 0.00 | 64 | 1051.9 |
| 20260505030936 | 14 | 180 | 0.0 | 1.6 | 0.00 | 0.00 | 0.00 | 65 | 1052.0 |
| 20260505025935 | 14 | 294 | 0.0 | 3.2 | 0.00 | 0.00 | 0.00 | 64 | 1052.1 |
| 20260505025018 | 14 | 135 | 0.0 | 0.0 | 0.00 | 0.00 | 0.00 | 64 | 1052.0 |
| 20260505024035 | 14 | 180 | 0.0 | 0.0 | 0.00 | 0.00 | 0.00 | 64 | 1051.9 |
| 20260505023037 | 14 | 202 | 0.0 | 0.0 | 0.00 | 0.00 | 0.00 | 66 | 1052.0 |
| 20260505022134 | 13 | 169 | 0.0 | 0.0 | 0.00 | 0.00 | 0.00 | 65 | 1052.0 |
| 20260505020135 | 14 | 157 | 0.0 | 0.0 | 0.00 | 0.00 | 0.00 | 65 | 1052.1 |
| 20260505015036 | 14 | 225 | 0.0 | 0.0 | 0.00 | 0.00 | 0.00 | 64 | 1052.0 |
| 20260505014034 | 14 | 225 | 0.0 | 0.0 | 0.00 | 0.00 | 0.00 | 62 | 1052.0 |
| 20260505013934 | 14 | 225 | 0.0 | 0.0 | 0.00 | 0.00 | 0.00 | 61 | 1052.0 |
| 20260505012936 | 15 | 225 | 0.0 | 0.0 | 0.00 | 0.00 | 0.00 | 60 | 1051.8 |
| 20260505011934 | 15 | 22 | 0.0 | 0.0 | 0.00 | 0.00 | 0.00 | 56 | 1051.7 |
| 20260505005933 | 16 | 112 | 0.0 | 0.0 | 0.00 | 0.00 | 0.00 | 54 | 1051.6 |
| 20260505004934 | 16 | 180 | 0.0 | 1.6 | 0.00 | 0.00 | 0.00 | 52 | 1051.5 |
| 20260505003935 | 17 | 337 | 0.0 | 0.0 | 0.00 | 0.00 | 0.00 | 50 | 1051.5 |
| 20260505002936 | 17 | 337 | 0.0 | 1.6 | 0.00 | 0.00 | 0.00 | 49 | 1051.5 |
| 20260505002834 | 17 | 337 | 0.0 | 3.2 | 0.00 | 0.00 | 0.00 | 48 | 1051.6 |
| 20260505001933 | 17 | 238 | 1.6 | 4.8 | 0.00 | 0.00 | 0.00 | 47 | 1051.5 |
| 20260505000933 | 18 | 171 | 1.6 | 4.8 | 0.00 | 0.00 | 0.00 | 45 | 1051.3 |
| 20260504235936 | 18 | 189 | 1.6 | 11.3 | 0.00 | 0.00 | 0.00 | 45 | 1051.3 |
| 20260504234935 | 19 | 197 | 0.0 | 1.6 | 0.00 | 0.00 | 0.00 | 44 | 1051.3 |
| 20260504233935 | 20 | 218 | 3.2 | 12.9 | 0.00 | 0.00 | 0.00 | 44 | 1051.3 |
| 20260504231933 | 20 | 20 | 0.0 | 0.0 | 0.00 | 0.00 | 0.00 | 43 | 1051.3 |
| 20260504231833 | 20 | 169 | 0.0 | 1.6 | 0.00 | 0.00 | 0.00 | 42 | 1051.4 |
| 20260504230835 | 20 | 217 | 0.0 | 4.8 | 0.00 | 0.00 | 0.00 | 41 | 1051.3 |
| 20260504225933 | 20 | 215 | 1.6 | 4.8 | 0.00 | 0.00 | 0.00 | 41 | 1051.3 |
| 20260504224934 | 20 | 130 | 1.6 | 4.8 | 0.00 | 0.00 | 0.00 | 39 | 1051.2 |
| 20260504224836 | 20 | 183 | 1.6 | 6.4 | 0.00 | 0.00 | 0.00 | 40 | 1051.1 |
| 20260504223837 | 21 | 43 | 1.6 | 4.8 | 0.00 | 0.00 | 0.00 | 39 | 1051.2 |
| 20260504223733 | 21 | 358 | 1.6 | 6.4 | 0.00 | 0.00 | 0.00 | 38 | 1051.1 |
| 20260504222737 | 22 | 57 | 3.2 | 6.4 | 0.00 | 0.00 | 0.00 | 36 | 1051.1 |
| 20260504221736 | 22 | 124 | 1.6 | 4.8 | 0.00 | 0.00 | 0.00 | 36 | 1051.1 |
| 20260504220833 | 23 | 136 | 3.2 | 14.5 | 0.00 | 0.00 | 0.00 | 34 | 1051.1 |
| 20260504220735 | 23 | 152 | 0.0 | 3.2 | 0.00 | 0.00 | 0.00 | 35 | 1051.1 |
| 20260504215834 | 23 | 189 | 0.0 | 1.6 | 0.00 | 0.00 | 0.00 | 33 | 1051.1 |
| 20260504214835 | 23 | 27 | 0.0 | 0.0 | 0.00 | 0.00 | 0.00 | 35 | 1051.0 |
| 20260504213834 | 23 | 89 | 0.0 | 3.2 | 0.00 | 0.00 | 0.00 | 35 | 1051.0 |
| 20260504212835 | 23 | 176 | 0.0 | 3.2 | 0.00 | 0.00 | 0.00 | 35 | 1051.0 |
| 20260504211933 | 23 | 327 | 0.0 | 3.2 | 0.00 | 0.00 | 0.00 | 33 | 1051.0 |
| 20260504210835 | 23 | 195 | 1.6 | 4.8 | 0.00 | 0.00 | 0.00 | 36 | 1051.1 |
| 20260504210735 | 23 | 226 | 6.4 | 11.3 | 0.00 | 0.00 | 0.00 | 36 | 1051.1 |
| 20260504205833 | 23 | 133 | 3.2 | 8.0 | 0.00 | 0.00 | 0.00 | 36 | 1050.9 |
| 20260504204834 | 23 | 129 | 3.2 | 9.7 | 0.00 | 0.00 | 0.00 | 35 | 1051.1 |
| 20260504203835 | 23 | 189 | 4.8 | 11.3 | 0.00 | 0.00 | 0.00 | 35 | 1051.3 |
| 20260504202833 | 23 | 142 | 3.2 | 8.0 | 0.00 | 0.00 | 0.00 | 33 | 1051.4 |
| 20260504201836 | 23 | 212 | 6.4 | 9.7 | 0.00 | 0.00 | 0.00 | 32 | 1051.4 |
| 20260504200834 | 23 | 178 | 1.6 | 8.0 | 0.00 | 0.00 | 0.00 | 33 | 1051.5 |
| 20260504200718 | 22 | 205 | 3.2 | 8.0 | 0.00 | 0.00 | 0.00 | 33 | 1051.5 |
| 20260504193734 | 22 | 221 | 8.0 | 12.9 | 0.00 | 0.00 | 0.00 | 34 | 1052.1 |
| 20260504192734 | 22 | 230 | 3.2 | 8.0 | 0.00 | 0.00 | 0.00 | 34 | 1052.2 |
| 20260504190736 | 22 | 232 | 8.0 | 12.9 | 0.00 | 0.00 | 0.00 | 34 | 1052.7 |
| 20260504185834 | 21 | 159 | 6.4 | 14.5 | 0.00 | 0.00 | 0.00 | 33 | 1052.7 |
| 20260504184834 | 21 | 223 | 9.7 | 17.7 | 0.00 | 0.00 | 0.00 | 34 | 1053.0 |
| 20260504183835 | 21 | 215 | 11.3 | 20.9 | 0.00 | 0.00 | 0.00 | 34 | 1053.1 |
| 20260504181834 | 22 | 231 | 6.4 | 12.9 | 0.00 | 0.00 | 0.00 | 34 | 1053.0 |
| 20260504181734 | 22 | 229 | 4.8 | 6.4 | 0.00 | 0.00 | 0.00 | 34 | 1053.1 |
| 20260504180733 | 21 | 186 | 3.2 | 4.8 | 0.00 | 0.00 | 0.00 | 35 | 1053.2 |
| 20260504174834 | 20 | 215 | 3.2 | 6.4 | 0.00 | 0.00 | 0.00 | 36 | 1053.6 |
| 20260504173835 | 20 | 217 | 6.4 | 12.9 | 0.00 | 0.00 | 0.00 | 36 | 1053.6 |
| 20260504172833 | 20 | 233 | 6.4 | 12.9 | 0.00 | 0.00 | 0.00 | 35 | 1053.9 |
| 20260504171932 | 21 | 210 | 11.3 | 20.9 | 0.00 | 0.00 | 0.00 | 34 | 1053.6 |
| 20260504170937 | 20 | 151 | 3.2 | 4.8 | 0.00 | 0.00 | 0.00 | 36 | 1054.0 |
| 20260504151033 | 17 | 204 | 4.8 | 11.3 | 0.00 | 0.00 | 0.00 | 39 | 1055.3 |
| 20260504141033 | 16 | 218 | 4.8 | 14.5 | 0.00 | 0.00 | 0.00 | 45 | 1055.7 |